Showing default

MICROSCOPE, 41457

Orbit data source: Space-Track

MICROSCOPE, 41457 is a payload satellite owned by CNES (FR) in SSO that was launched on Mon, 25 Apr 2016 UTC via a SOYUZ-ST-A launch vehicle from the French Guiana (FRGUI). Payload-class satellites include a variety of spacecraft equipped with specific instruments for various scientific and technological missions. These include communications satellites like Starlink; space stations such as the ISS; scientific satellites like the Hubble; Earth observation satellites from companies like Planet Labs, Umbra, and HawkEye 360; GPS; miniature CubeSats for education and research; and military/defense satellites.

Loading next visibility...
Identifier
41457, 2016-025B
Orbit
SSO
Country
Flag of FRFR
Related business
Manufacturer
ONERA/CNES
Mission
Non-operational Civil Science
Bus & Motor
MYRIADE, Unknown motor
Mass
303 kg wet, 303 kg dry
Launch date (UTC)
2016-04-25 (10 years ago)
Launch vehicle
SOYUZ-ST-A
Launch site
French Guiana (FRGUI)
Object type
Payload
Rocket body
Debris
Shape & HBR
Box + 2 Pan + 2 Rod, 1.6 m
Radar Cross Section
4.027 m², Large (>1 m²)

Expand to show TLE details & history
Last TLE update: 7 hours ago

TLE from 7 hours ago
0 MICROSCOPE
1 41457U 16025B   26257.29473035  .00000550  00000-0  12524-3 0  9997
2 41457  98.2456 269.4200 0000940  82.1639 277.9668 14.59703608551720
Epoch: 2026-09-14T07:04Z
TLE epoch observation values (Epoch: 2026-09-14T07:04:24.702Z)
Latitude
0.00004°
Longitude
170.03998°
Altitude
697.022 km
Speed
7.508 km/s
True Right ascension
17h 57m 40s
True Declination
0° 00' 00"
Sunlit
Object was in daylight at epoch
Visualization orbit readout
Latitude
Unknown
Longitude
Unknown
Altitude
Unknown
Speed
Unknown
Apparent Right ascension
Unknown
Apparent Declination
Unknown
Sunlit
N/A
Visualization observer readout
Local Sidereal Time
06:28:17
Azimuth
Unknown
Elevation
Unknown
Doppler factor
Unknown
Orbital elements
Apogee altitude
691.879 km
Perigee altitude
690.55 km
Semi-major axis
7,069.352 km
Eccentricity
0.00009
Inclination
98.2456°
RAAN
269.42°
Arg. of periapsis
82.1639°
True anomaly
277.95613°
Mean anomaly
277.9668°
Eccentric anomaly
277.96147°
Mean motion
3.65152 °/min
Orbital period
98.59 mins
BSTAR
0.00012524
Loading maneuver chart data...
Computing Atmospheric mass density...
Loading historical data...
Loading historical data...
Loading historical data...
Loading historical data...
Loading historical data...
Loading historical data...
Loading historical data...

Documentation

Showing up to 5 results
|